Torna al catalogo

COSMOS 2251 DEB

AttivoLEO
NORAD 33942·DEBRIS·🇷🇺 Russia

Lanciato Jun 16, 1993 da Plesetsk Cosmodrome

Loading…

Prossimi Passaggi (prossime 24 ore)

TLE

AggiornatoSource: Space-Track

Epoca: Sep 14, 2026, 10:04 UTC

1 33942U 93036EX  26257.41980469  .00000302  00000-0  10773-3 0  9991
2 33942  74.0354 126.9709 0020142 149.4203  25.1015 14.38290080920978

Traccia COSMOS 2251 DEB in tempo reale con AllMySat

Download on the App Store